When you browse on this site, cookies collect data to enhance your experience and personalize the content and advertising you see.
Visit our Privacy Policy to learn more. By continuing to use the site, you agree to this use of cookies and data.
  • In Schweiz
  • Länderverzeichnis
  • Für 7 Tage
  • Wassertemperatur
  • Wetterkarte
  • Widgets
  • user-avatar
    Anmelden

    Stündliche Wetter Lyubanovo

    Heute, 18 August, Sonntag

    Zeit Temperatur Niederschläge Wind Luftdruck Luftfeuchtigkeit
    00:00 +14°C° 1 mm 3 m/S 742 mmHg 98%
    01:00 +15°C° 1 mm 2 m/S 742 mmHg 98%
    02:00 +15°C° 1 mm 2 m/S 742 mmHg 99%
    03:00 +15°C° 1.3 mm 2 m/S 742 mmHg 99%
    04:00 +14°C° 1.3 mm 3 m/S 741 mmHg 98%
    05:00 +14°C° 1.3 mm 3 m/S 741 mmHg 98%
    06:00 +14°C° 1.8 mm 3 m/S 741 mmHg 98%
    07:00 +14°C° 1.8 mm 3 m/S 741 mmHg 98%
    08:00 +14°C° 1.8 mm 3 m/S 741 mmHg 97%
    09:00 +14°C° 1.6 mm 3 m/S 741 mmHg 97%
    10:00 +14°C° 1.6 mm 3 m/S 741 mmHg 97%
    11:00 +14°C° 1.6 mm 3 m/S 742 mmHg 97%
    12:00 +14°C° 0.5 mm 3 m/S 742 mmHg 96%
    13:00 +15°C° 0.5 mm 2 m/S 742 mmHg 96%
    14:00 +16°C° 0.5 mm 2 m/S 742 mmHg 95%
    15:00 +16°C° 0.1 mm 2 m/S 743 mmHg 94%
    16:00 +17°C° 0.1 mm 2 m/S 743 mmHg 93%
    17:00 +17°C° 0.1 mm 2 m/S 743 mmHg 92%
    18:00 +16°C° 0 mm 2 m/S 743 mmHg 93%
    19:00 +16°C° 0 mm 1 m/S 744 mmHg 94%
    20:00 +15°C° 0 mm 1 m/S 744 mmHg 95%
    21:00 +15°C° 0 mm 1 m/S 744 mmHg 95%
    22:00 +14°C° 0 mm 1 m/S 744 mmHg 96%
    23:00 +14°C° 0 mm 2 m/S 744 mmHg 96%

    Morgen, 19 August, Montag

    Zeit Temperatur Niederschläge Wind Luftdruck Luftfeuchtigkeit
    00:00 +14°C° 0 mm 2 m/S 745 mmHg 96%
    01:00 +14°C° 0 mm 2 m/S 745 mmHg 96%
    02:00 +13°C° 0 mm 2 m/S 745 mmHg 96%
    03:00 +13°C° 0 mm 2 m/S 745 mmHg 95%
    04:00 +13°C° 0 mm 1 m/S 746 mmHg 95%
    05:00 +13°C° 0 mm 1 m/S 746 mmHg 95%
    06:00 +14°C° 0 mm 2 m/S 746 mmHg 92%
    07:00 +16°C° 0 mm 2 m/S 746 mmHg 89%
    08:00 +18°C° 0 mm 2 m/S 747 mmHg 87%
    09:00 +19°C° 0 mm 3 m/S 747 mmHg 81%
    10:00 +21°C° 0 mm 3 m/S 747 mmHg 74%
    11:00 +24°C° 0 mm 3 m/S 747 mmHg 68%
    12:00 +23°C° 0 mm 4 m/S 747 mmHg 67%
    13:00 +25°C° 0 mm 4 m/S 747 mmHg 66%
    14:00 +25°C° 0 mm 4 m/S 747 mmHg 65%
    15:00 +25°C° 0 mm 4 m/S 747 mmHg 69%
    16:00 +25°C° 0 mm 3 m/S 747 mmHg 72%
    17:00 +25°C° 0 mm 3 m/S 747 mmHg 75%
    18:00 +22°C° 0 mm 3 m/S 747 mmHg 80%
    19:00 +21°C° 0 mm 3 m/S 747 mmHg 85%
    20:00 +19°C° 0 mm 3 m/S 747 mmHg 90%
    21:00 +19°C° 0 mm 3 m/S 748 mmHg 91%
    22:00 +18°C° 0 mm 3 m/S 748 mmHg 91%
    23:00 +18°C° 0 mm 3 m/S 748 mmHg 91%

    übermorgen, 20 August, Dienstag

    Zeit Temperatur Niederschläge Wind Luftdruck Luftfeuchtigkeit
    00:00 +18°C° 0 mm 3 m/S 748 mmHg 92%
    01:00 +17°C° 0 mm 2 m/S 748 mmHg 94%
    02:00 +17°C° 0 mm 2 m/S 748 mmHg 95%
    03:00 +17°C° 0.3 mm 2 m/S 748 mmHg 96%
    04:00 +17°C° 0.3 mm 2 m/S 748 mmHg 96%
    05:00 +17°C° 0.3 mm 2 m/S 749 mmHg 97%
    06:00 +18°C° 0.2 mm 2 m/S 749 mmHg 95%
    07:00 +19°C° 0.2 mm 2 m/S 749 mmHg 93%
    08:00 +21°C° 0.2 mm 2 m/S 749 mmHg 92%
    09:00 +23°C° 0.1 mm 2 m/S 749 mmHg 88%
    10:00 +24°C° 0.1 mm 2 m/S 750 mmHg 84%
    11:00 +25°C° 0.1 mm 2 m/S 750 mmHg 79%
    12:00 +25°C° 0.1 mm 2 m/S 750 mmHg 79%
    13:00 +26°C° 0.1 mm 2 m/S 750 mmHg 79%
    14:00 +26°C° 0.1 mm 2 m/S 750 mmHg 78%
    15:00 +26°C° 0.7 mm 2 m/S 750 mmHg 81%
    16:00 +25°C° 0.7 mm 2 m/S 750 mmHg 84%
    17:00 +25°C° 0.7 mm 2 m/S 750 mmHg 87%
    18:00 +24°C° 0.7 mm 2 m/S 750 mmHg 89%
    19:00 +22°C° 0.7 mm 1 m/S 750 mmHg 91%
    20:00 +21°C° 0.7 mm 1 m/S 750 mmHg 93%
    21:00 +20°C° 0.1 mm 1 m/S 750 mmHg 94%
    22:00 +20°C° 0.1 mm 1 m/S 750 mmHg 94%
    23:00 +17°C° 0.1 mm 0 m/S 751 mmHg 95%

    21 August, Mittwoch

    Zeit Temperatur Niederschläge Wind Luftdruck Luftfeuchtigkeit
    00:00 +19°C° 0 mm 1 m/S 751 mmHg 95%
    01:00 +19°C° 0 mm 1 m/S 751 mmHg 95%
    02:00 +19°C° 0 mm 1 m/S 751 mmHg 95%
    03:00 +18°C° 0 mm 1 m/S 751 mmHg 95%
    04:00 +18°C° 0 mm 1 m/S 751 mmHg 95%
    05:00 +18°C° 0 mm 1 m/S 751 mmHg 95%
    06:00 +19°C° 0 mm 1 m/S 751 mmHg 93%
    07:00 +21°C° 0 mm 1 m/S 751 mmHg 90%
    08:00 +20°C° 0 mm 0 m/S 751 mmHg 87%
    09:00 +22°C° 0 mm 0 m/S 751 mmHg 82%
    10:00 +23°C° 0 mm 0 m/S 751 mmHg 76%
    11:00 +24°C° 0 mm 0 m/S 751 mmHg 71%
    12:00 +26°C° 0.7 mm 1 m/S 751 mmHg 72%
    13:00 +27°C° 0.7 mm 1 m/S 750 mmHg 73%
    14:00 +27°C° 0.7 mm 1 m/S 750 mmHg 74%
    15:00 +26°C° 1.1 mm 1 m/S 750 mmHg 78%
    16:00 +26°C° 1.1 mm 1 m/S 749 mmHg 82%
    17:00 +25°C° 1.1 mm 1 m/S 749 mmHg 86%
    18:00 +24°C° 0.2 mm 2 m/S 749 mmHg 88%
    19:00 +23°C° 0.2 mm 2 m/S 748 mmHg 90%
    20:00 +21°C° 0.2 mm 2 m/S 748 mmHg 91%
    21:00 +20°C° 0.9 mm 2 m/S 748 mmHg 93%
    22:00 +20°C° 0.9 mm 2 m/S 748 mmHg 94%
    23:00 +20°C° 0.9 mm 2 m/S 747 mmHg 96%

    22 August, Donnerstag

    Zeit Temperatur Niederschläge Wind Luftdruck Luftfeuchtigkeit
    00:00 +19°C° 0.5 mm 2 m/S 748 mmHg 96%
    01:00 +19°C° 0.5 mm 2 m/S 748 mmHg 96%
    02:00 +19°C° 0.5 mm 2 m/S 748 mmHg 96%
    03:00 +18°C° 0.3 mm 3 m/S 748 mmHg 96%
    04:00 +17°C° 0.3 mm 4 m/S 748 mmHg 96%
    05:00 +15°C° 0.3 mm 5 m/S 748 mmHg 96%
    06:00 +15°C° 0.1 mm 5 m/S 748 mmHg 94%
    07:00 +15°C° 0.1 mm 5 m/S 749 mmHg 93%
    08:00 +15°C° 0.1 mm 5 m/S 749 mmHg 92%
    09:00 +16°C° 0 mm 5 m/S 750 mmHg 86%
    10:00 +17°C° 0 mm 5 m/S 750 mmHg 80%
    11:00 +19°C° 0 mm 4 m/S 750 mmHg 74%
    12:00 +20°C° 0 mm 4 m/S 750 mmHg 70%
    13:00 +21°C° 0 mm 4 m/S 751 mmHg 65%
    14:00 +22°C° 0 mm 3 m/S 751 mmHg 61%
    15:00 +22°C° 0 mm 3 m/S 751 mmHg 64%
    16:00 +22°C° 0 mm 3 m/S 751 mmHg 68%
    17:00 +21°C° 0 mm 2 m/S 751 mmHg 72%
    18:00 +20°C° 0 mm 2 m/S 751 mmHg 76%
    19:00 +18°C° 0 mm 2 m/S 751 mmHg 79%
    20:00 +16°C° 0 mm 2 m/S 751 mmHg 83%
    21:00 +15°C° 0 mm 2 m/S 751 mmHg 85%
    22:00 +15°C° 0 mm 2 m/S 752 mmHg 86%
    23:00 +14°C° 0 mm 2 m/S 752 mmHg 88%

    23 August, Freitag

    Zeit Temperatur Niederschläge Wind Luftdruck Luftfeuchtigkeit
    00:00 +14°C° 0 mm 2 m/S 752 mmHg 90%
    01:00 +13°C° 0 mm 2 m/S 752 mmHg 92%
    02:00 +12°C° 0 mm 2 m/S 752 mmHg 93%
    03:00 +12°C° 0 mm 2 m/S 752 mmHg 94%
    04:00 +12°C° 0 mm 2 m/S 752 mmHg 94%
    05:00 +10°C° 0 mm 2 m/S 752 mmHg 94%
    06:00 +13°C° 0 mm 1 m/S 752 mmHg 88%
    07:00 +15°C° 0 mm 1 m/S 752 mmHg 82%
    08:00 +18°C° 0 mm 1 m/S 752 mmHg 76%
    09:00 +19°C° 0 mm 1 m/S 752 mmHg 70%
    10:00 +19°C° 0 mm 2 m/S 752 mmHg 65%
    11:00 +20°C° 0 mm 2 m/S 752 mmHg 59%
    12:00 +20°C° 0 mm 2 m/S 752 mmHg 59%
    13:00 +20°C° 0 mm 2 m/S 752 mmHg 60%
    14:00 +21°C° 0 mm 2 m/S 752 mmHg 60%
    15:00 +20°C° 0.1 mm 2 m/S 752 mmHg 66%
    16:00 +19°C° 0.1 mm 2 m/S 752 mmHg 72%
    17:00 +18°C° 0.1 mm 2 m/S 751 mmHg 78%
    18:00 +17°C° 0.1 mm 2 m/S 751 mmHg 81%
    19:00 +16°C° 0.1 mm 2 m/S 751 mmHg 85%
    20:00 +14°C° 0.1 mm 2 m/S 752 mmHg 89%
    21:00 +14°C° 0 mm 2 m/S 752 mmHg 91%
    22:00 +13°C° 0 mm 2 m/S 752 mmHg 92%
    23:00 +12°C° 0 mm 2 m/S 752 mmHg 94%
    Mehr zeigen